Home > Weather > Hefei > Past weeks

Flag for China Past Weather in Hefei, Anhui, China — Yesterday and Last 2 Weeks

Now
84 °F

Fog.


Feels Like: 101 °F
Forecast: 82 / 99 °F
Wind: No wind

Location: Hefei Airport

Current Time: Jul 29, 2016 at 4:24:51 AM

Latest Report: Jul 29, 2016 at 3:00 AM


Visibility: 2 mi

Pressure: 29.65 "Hg

Humidity: 94%

Dew Point: 82 °F

Location of HefeiLocation

Past Weather in Hefei — Graph

°F

Hefei Temperature Yesterday

Maximum temperature yesterday: 100 °F (at 1:00 PM)
Minimum temperature yesterday: 82 °F (at 4:00 AM)
Average temperature yesterday: 92 °F

High & Low Weather Summary for the Past Weeks

 TemperatureHumidityPressure
High100 °F (Jul 25, 4:00 PM)100% (Jul 14, 4:00 AM)29.74 "Hg (Jul 14, 4:00 AM)
Low72 °F (Jul 16, 2:00 AM)45% (Jul 25, 4:00 PM)29.50 "Hg (Jul 15, 3:00 AM)
Average86 °F79%29.64 "Hg
* Reported Jul 14 3:00 AM — Jul 29 3:00 AM, Hefei, Weather by CustomWeather, © 2016

Note: Actual official high and low records may vary slightly from our data, if they occured in-between our weather recording intervals... More about our weather records

Advertising

Hefei Weather History for the Previous 24 Hours

Scroll right to see more
 ConditionsComfort  
Time TempWeatherWind HumidityBarometerVisibility
3:00 AM
Fri, Jul 29
84 °FFog.No wind94%29.65 "Hg2 mi
2:00 AM84 °FFog.No wind94%29.68 "Hg3 mi
1:00 AM86 °FClear.3 mph89%29.68 "Hg4 mi
12:00 AM88 °FClear.3 mph84%29.68 "Hg4 mi
11:00 PM
Thu, Jul 28
90 °FClear.6 mph79%29.68 "Hg5 mi
10:00 PM91 °FClear.8 mph75%29.68 "Hg5 mi
9:00 PM90 °FClear.8 mph79%29.65 "Hg10 mi
8:00 PM93 °FClear.8 mph67%29.62 "Hg10 mi
7:00 PM95 °FSunny.10 mph63%29.62 "Hg10 mi
6:00 PM97 °FSunny.13 mph60%29.62 "Hg10 mi
5:00 PM99 °FSunny.10 mph50%29.59 "Hg10 mi
4:00 PM100 °FPassing clouds.10 mph50%29.62 "HgN/A
3:00 PM100 °FPassing clouds.10 mph47%29.62 "HgN/A
2:00 PM100 °FPassing clouds.10 mph50%29.65 "HgN/A
1:00 PM100 °FPassing clouds.8 mph47%29.65 "HgN/A
12:00 PM99 °FPassing clouds.10 mph50%29.65 "HgN/A
11:00 AM97 °FPassing clouds.10 mph53%29.68 "HgN/A
10:00 AM95 °FPassing clouds.10 mph60%29.68 "HgN/A
9:00 AM93 °FSunny.8 mph67%29.68 "Hg10 mi
8:00 AM90 °FSunny.8 mph71%29.68 "Hg10 mi
7:00 AM86 °FClear.6 mph79%29.68 "Hg4 mi
6:00 AM82 °FFog.3 mph89%29.65 "Hg3 mi
5:00 AM82 °FClear.6 mph89%29.65 "Hg4 mi
4:00 AM82 °FClear.6 mph89%29.65 "Hg4 mi
Weather by CustomWeather, © 2016

See weather overviewHow to use our weather pages